KC5YIL Weather Reports


Display with metric or nautical units.
time (UTC)temp
F
wind
direction
speed
MPH
gust
MPH
rain 1hr
in
rain 24hr
in
rain mn
in
humidity
%
barometer
mb
20200403062321 54 139 0.0 4.0 0.00 0.00 0.00 67 1015.5
20200403061823 54 134 0.0 6.0 0.00 0.00 0.00 67 1015.5
20200403061320 54 136 0.0 6.0 0.00 0.00 0.00 67 1015.5
20200403060822 54 140 0.0 5.0 0.00 0.00 0.00 67 1015.5
20200403060317 54 123 0.0 2.0 0.00 0.00 0.00 67 1015.5
20200403055838 54 105 0.0 3.0 0.00 0.00 0.00 66 1015.4
20200403055333 54 113 0.0 2.0 0.00 0.00 0.00 66 1015.4
20200403054830 54 138 0.0 2.0 0.00 0.00 0.00 66 1015.4
20200403054322 55 130 0.0 6.0 0.00 0.00 0.00 65 1015.4
20200403053841 55 106 1.0 6.0 0.00 0.00 0.00 65 1015.4
20200403053334 55 123 1.0 8.0 0.00 0.00 0.00 65 1015.4
20200403052831 55 134 2.0 9.0 0.00 0.00 0.00 65 1015.5
20200403052329 55 130 4.0 9.0 0.00 0.00 0.00 64 1015.5
20200403051827 55 105 2.0 5.0 0.00 0.00 0.00 64 1015.5
20200403051323 55 107 1.0 10.0 0.00 0.00 0.00 64 1015.5
20200403050823 55 115 1.0 10.0 0.00 0.00 0.00 64 1015.5
20200403050320 55 130 0.0 6.0 0.00 0.00 0.00 64 1015.5
20200403045830 55 108 1.0 5.0 0.00 0.00 0.00 64 1015.5
20200403045329 55 106 1.0 5.0 0.00 0.00 0.00 64 1015.5
20200403044829 55 152 1.0 3.0 0.00 0.00 0.00 64 1015.5
20200403044328 55 134 1.0 4.0 0.00 0.00 0.00 64 1015.5
20200403043828 55 118 1.0 6.0 0.00 0.00 0.00 64 1015.5
20200403043328 55 123 0.0 9.0 0.00 0.00 0.00 64 1015.5
20200403042826 55 112 0.0 9.0 0.00 0.00 0.00 63 1015.4
20200403042325 55 142 1.0 6.0 0.00 0.00 0.00 63 1015.4
20200403041824 55 120 3.0 6.0 0.00 0.00 0.00 63 1015.4
20200403041323 55 151 2.0 6.0 0.00 0.00 0.00 63 1015.4
20200403040822 55 137 2.0 7.0 0.00 0.00 0.00 63 1015.4
20200403040323 55 137 3.0 7.0 0.00 0.00 0.00 63 1015.4
20200403035823 55 161 1.0 5.0 0.00 0.00 0.00 64 1015.4
20200403035321 55 150 2.0 5.0 0.00 0.00 0.00 64 1015.4
20200403034823 55 151 0.0 4.0 0.00 0.00 0.00 64 1015.4
20200403034324 55 94 0.0 7.0 0.00 0.00 0.00 65 1015.4
20200403033825 55 108 2.0 7.0 0.00 0.00 0.00 64 1015.4
20200403033326 54 114 1.0 4.0 0.00 0.00 0.00 64 1015.4
20200403032828 54 132 1.0 4.0 0.00 0.00 0.00 64 1015.3
20200403032328 54 96 1.0 5.0 0.00 0.00 0.00 65 1015.3
20200403031828 54 132 1.0 5.0 0.00 0.00 0.00 65 1015.3
20200403031329 54 107 1.0 3.0 0.00 0.00 0.00 64 1015.1
20200403030828 54 117 0.0 4.0 0.00 0.00 0.00 64 1015.1
20200403030323 54 107 2.0 4.0 0.00 0.00 0.00 64 1015.1
20200403025822 54 107 2.0 6.0 0.00 0.00 0.00 64 1015.1
20200403025322 54 117 1.0 6.0 0.00 0.00 0.00 63 1015.1
20200403024821 54 105 1.0 6.0 0.00 0.00 0.00 64 1015.1
20200403024321 55 121 1.0 6.0 0.00 0.00 0.00 63 1015.1
20200403023822 54 123 0.0 4.0 0.00 0.00 0.00 62 1015.1
20200403023321 54 117 2.0 6.0 0.00 0.00 0.00 63 1015.1
20200403022817 54 107 3.0 6.0 0.00 0.00 0.00 63 1015.0
20200403022317 54 112 1.0 7.0 0.00 0.00 0.00 63 1015.0
20200403021817 54 110 1.0 7.0 0.00 0.00 0.00 63 1015.0
20200403021330 54 138 1.0 6.0 0.00 0.00 0.00 63 1015.0
20200403020829 53 111 1.0 6.0 0.00 0.00 0.00 64 1015.0
20200403020328 53 109 2.0 6.0 0.00 0.00 0.00 64 1015.0
20200403015829 53 115 1.0 7.0 0.00 0.00 0.00 64 1014.9
20200403015329 53 119 1.0 6.0 0.00 0.00 0.00 64 1014.9
20200403014828 53 100 1.0 6.0 0.00 0.00 0.00 64 1014.9
20200403014328 53 105 2.0 5.0 0.00 0.00 0.00 64 1014.9
20200403013825 53 100 1.0 4.0 0.00 0.00 0.00 64 1014.9
20200403013328 53 121 0.0 4.0 0.00 0.00 0.00 64 1014.9
20200403012828 54 146 2.0 5.0 0.00 0.00 0.00 63 1014.7
20200403012326 54 112 1.0 5.0 0.00 0.00 0.00 61 1014.7
20200403011820 55 113 2.0 3.0 0.00 0.00 0.00 61 1014.7
20200403011318 55 94 0.0 3.0 0.00 0.00 0.00 60 1014.5
20200403010817 56 115 0.0 4.0 0.00 0.00 0.00 59 1014.5
20200403010316 56 96 1.0 4.0 0.00 0.00 0.00 59 1014.5
20200403005818 57 121 1.0 5.0 0.00 0.00 0.00 59 1014.4
20200403005318 57 106 2.0 5.0 0.00 0.00 0.00 57 1014.4
20200403004818 57 121 1.0 6.0 0.00 0.00 0.00 58 1014.4
20200403004317 57 104 3.0 8.0 0.00 0.00 0.00 56 1014.4
20200403003817 58 101 1.0 10.0 0.00 0.00 0.00 56 1014.4
20200403003321 58 109 2.0 7.0 0.00 0.00 0.00 55 1014.4
20200403002822 58 111 2.0 7.0 0.00 0.00 0.00 55 1014.4
20200403002321 58 123 2.0 6.0 0.00 0.00 0.00 55 1014.4
20200403001840 59 108 1.0 6.0 0.00 0.00 0.00 54 1014.4
20200403001332 59 122 3.0 9.0 0.00 0.00 0.00 54 1014.4
20200403000827 59 119 1.0 10.0 0.00 0.00 0.00 53 1014.4
20200403000325 60 109 1.0 11.0 0.00 0.00 0.00 52 1014.5
20200402235824 60 117 1.0 11.0 0.00 0.00 0.00 52 1014.4
20200402235323 61 150 2.0 12.0 0.00 0.00 0.00 51 1014.4
20200402234824 61 105 1.0 12.0 0.00 0.00 0.00 50 1014.4
20200402234325 62 145 3.0 11.0 0.00 0.00 0.00 49 1014.4
20200402233827 62 137 5.0 12.0 0.00 0.00 0.00 48 1014.4
20200402233326 62 144 3.0 16.0 0.00 0.00 0.00 48 1014.4
20200402232824 63 103 4.0 16.0 0.00 0.00 0.00 48 1014.4
20200402232324 63 131 3.0 13.0 0.00 0.00 0.00 47 1014.4
20200402231825 64 150 3.0 14.0 0.00 0.00 0.00 46 1014.4
20200402231323 64 155 3.0 14.0 0.00 0.00 0.00 46 1014.4
20200402230822 64 109 6.0 14.0 0.00 0.00 0.00 46 1014.4
20200402230320 64 119 2.0 14.0 0.00 0.00 0.00 46 1014.4
20200402225818 64 121 4.0 14.0 0.00 0.00 0.00 45 1014.4
20200402225317 64 105 4.0 13.0 0.00 0.00 0.00 46 1014.4
20200402224818 64 144 2.0 11.0 0.00 0.00 0.00 46 1014.4
20200402224316 64 141 2.0 12.0 0.00 0.00 0.00 45 1014.4
20200402223816 65 129 2.0 13.0 0.00 0.00 0.00 45 1014.4
20200402223335 65 126 4.0 13.0 0.00 0.00 0.00 45 1014.4
20200402222832 65 199 6.0 13.0 0.00 0.00 0.00 45 1014.4
20200402222330 65 124 4.0 14.0 0.00 0.00 0.00 44 1014.4
20200402221833 65 117 4.0 14.0 0.00 0.00 0.00 45 1014.4
20200402221333 64 49 5.0 15.0 0.00 0.00 0.00 46 1014.4
20200402220830 64 141 5.0 15.0 0.00 0.00 0.00 45 1014.4
20200402220330 65 94 4.0 12.0 0.00 0.00 0.00 46 1014.4
20200402215828 64 123 3.0 11.0 0.00 0.00 0.00 45 1014.4
20200402215331 64 180 2.0 14.0 0.00 0.00 0.00 46 1014.4
20200402214831 64 117 8.0 14.0 0.00 0.00 0.00 46 1014.4
20200402214329 64 73 3.0 13.0 0.00 0.00 0.00 47 1014.4
20200402213829 64 83 1.0 13.0 0.00 0.00 0.00 46 1014.4
20200402213329 64 118 2.0 13.0 0.00 0.00 0.00 45 1014.4
20200402212831 64 111 4.0 12.0 0.00 0.00 0.00 45 1014.6
20200402212330 64 139 2.0 10.0 0.00 0.00 0.00 45 1014.6
20200402211829 64 130 1.0 11.0 0.00 0.00 0.00 45 1014.6
20200402211320 65 174 4.0 11.0 0.00 0.00 0.00 44 1014.9
20200402210817 65 100 3.0 10.0 0.00 0.00 0.00 44 1014.9
20200402210335 65 119 4.0 12.0 0.00 0.00 0.00 43 1014.9
20200402205824 65 128 5.0 16.0 0.00 0.00 0.00 43 1014.9
20200402205326 65 159 6.0 16.0 0.00 0.00 0.00 43 1014.9
20200402204826 65 120 4.0 13.0 0.00 0.00 0.00 44 1014.9
20200402204327 65 140 1.0 10.0 0.00 0.00 0.00 43 1014.9
20200402203826 65 111 5.0 11.0 0.00 0.00 0.00 42 1014.9
20200402203325 66 127 1.0 14.0 0.00 0.00 0.00 42 1015.0
20200402202823 66 105 4.0 14.0 0.00 0.00 0.00 43 1015.0
20200402202322 66 65 1.0 13.0 0.00 0.00 0.00 42 1015.0
20200402201823 66 188 3.0 13.0 0.00 0.00 0.00 41 1015.0
20200402201321 66 114 4.0 13.0 0.00 0.00 0.00 42 1015.2
20200402200818 66 106 2.0 11.0 0.00 0.00 0.00 43 1015.2
20200402200333 65 104 2.0 12.0 0.00 0.00 0.00 44 1015.1
20200402195833 65 117 4.0 12.0 0.00 0.00 0.00 43 1015.5
20200402195333 64 153 3.0 12.0 0.00 0.00 0.00 43 1015.5
20200402194834 64 146 3.0 12.0 0.00 0.00 0.00 43 1015.5
20200402194330 65 107 3.0 18.0 0.00 0.00 0.00 44 1015.4
20200402193828 65 190 2.0 18.0 0.00 0.00 0.00 41 1015.4
20200402193326 65 171 5.0 15.0 0.00 0.00 0.00 43 1015.4
20200402192823 65 127 5.0 15.0 0.00 0.00 0.00 43 1015.5
20200402192319 64 121 5.0 14.0 0.00 0.00 0.00 45 1015.5
20200402191818 64 120 6.0 14.0 0.00 0.00 0.00 44 1015.5
20200402191317 64 177 7.0 14.0 0.00 0.00 0.00 44 1015.5
20200402190819 64 140 3.0 15.0 0.00 0.00 0.00 44 1015.5
20200402190318 64 120 5.0 15.0 0.00 0.00 0.00 44 1015.5
20200402185815 64 126 4.0 14.0 0.00 0.00 0.00 44 1015.7
20200402185316 63 137 6.0 14.0 0.00 0.00 0.00 46 1015.7
20200402184834 63 106 4.0 10.0 0.00 0.00 0.00 47 1015.7
20200402184331 62 82 3.0 14.0 0.00 0.00 0.00 47 1016.0
20200402183813 61 107 4.0 14.0 0.00 0.00 0.00 48 1016.0
20200402183314 61 101 2.0 14.0 0.00 0.00 0.00 48 1016.0
20200402182835 60 142 5.0 14.0 0.00 0.00 0.00 49 1016.1
20200402182333 60 116 9.0 14.0 0.00 0.00 0.00 49 1016.1
20200402181832 60 113 2.0 13.0 0.00 0.00 0.00 49 1016.1
20200402181333 60 111 3.0 13.0 0.00 0.00 0.00 48 1016.1
20200402180833 60 120 5.0 12.0 0.00 0.00 0.00 48 1016.1
20200402180332 59 146 3.0 12.0 0.00 0.00 0.00 50 1016.1
20200402175830 59 109 5.0 17.0 0.00 0.00 0.00 49 1016.1
20200402175329 59 98 4.0 17.0 0.00 0.00 0.00 48 1016.1
20200402174829 59 137 4.0 10.0 0.00 0.00 0.00 48 1016.1
20200402174327 59 110 3.0 10.0 0.00 0.00 0.00 47 1016.2
20200402173827 59 108 3.0 15.0 0.00 0.00 0.00 48 1016.2
20200402173324 60 100 6.0 15.0 0.00 0.00 0.00 47 1016.2
20200402172823 60 148 6.0 14.0 0.00 0.00 0.00 46 1016.5
20200402172321 61 108 4.0 11.0 0.00 0.00 0.00 46 1016.5
20200402171820 62 142 4.0 11.0 0.00 0.00 0.00 44 1016.5
20200402171318 62 199 3.0 18.0 0.00 0.00 0.00 45 1016.6
20200402170817 61 115 4.0 18.0 0.00 0.00 0.00 46 1016.6
20200402170317 62 118 5.0 13.0 0.00 0.00 0.00 45 1016.6
20200402165818 61 115 3.0 13.0 0.00 0.00 0.00 46 1017.1
20200402165316 62 128 3.0 11.0 0.00 0.00 0.00 46 1017.1
20200402164827 61 122 2.0 11.0 0.00 0.00 0.00 48 1017.1
20200402164332 61 128 4.0 12.0 0.00 0.00 0.00 46 1017.2
20200402163829 60 111 3.0 15.0 0.00 0.00 0.00 47 1017.2
20200402163331 60 117 4.0 17.0 0.00 0.00 0.00 49 1017.2
20200402162828 59 227 6.0 17.0 0.00 0.00 0.00 48 1017.5
20200402162320 58 152 4.0 17.0 0.00 0.00 0.00 50 1017.5
20200402161820 58 106 8.0 17.0 0.00 0.00 0.00 49 1017.5
20200402161315 58 144 4.0 11.0 0.00 0.00 0.00 51 1017.7
20200402160833 57 134 3.0 11.0 0.00 0.00 0.00 53 1017.7
20200402160324 57 154 2.0 9.0 0.00 0.00 0.00 53 1017.7
20200402155822 56 136 3.0 9.0 0.00 0.00 0.00 54 1017.7
20200402155341 56 117 2.0 9.0 0.00 0.00 0.00 57 1017.7
20200402154830 55 109 4.0 14.0 0.00 0.00 0.00 56 1017.7
20200402154326 54 92 4.0 18.0 0.00 0.00 0.00 56 1017.8
20200402153825 54 118 8.0 18.0 0.00 0.00 0.00 57 1017.8
20200402153325 54 85 2.0 13.0 0.00 0.00 0.00 58 1017.8
20200402152823 54 160 4.0 18.0 0.00 0.00 0.00 57 1017.9
20200402152322 54 157 2.0 18.0 0.00 0.00 0.00 57 1017.9
20200402151817 54 145 3.0 18.0 0.00 0.00 0.00 58 1017.9
20200402151317 54 156 6.0 18.0 0.00 0.00 0.00 59 1018.1
20200402150834 53 222 5.0 17.0 0.00 0.00 0.00 58 1018.1
20200402150333 53 89 6.0 17.0 0.00 0.00 0.00 60 1018.1
20200402145829 53 96 1.0 10.0 0.00 0.00 0.00 61 1018.3
20200402145328 52 102 2.0 11.0 0.00 0.00 0.00 63 1018.3
20200402144830 52 123 2.0 14.0 0.00 0.00 0.00 63 1018.3
20200402144330 51 129 4.0 14.0 0.00 0.00 0.00 63 1018.3
20200402143826 50 138 2.0 10.0 0.00 0.00 0.00 67 1018.3
20200402143325 50 116 2.0 14.0 0.00 0.00 0.00 67 1018.3
20200402142824 49 105 3.0 6.0 0.00 0.00 0.00 68 1018.3
20200402142326 49 105 1.0 10.0 0.00 0.00 0.00 68 1018.3
20200402141827 49 96 0.0 10.0 0.00 0.00 0.00 69 1018.3
20200402141347 49 173 1.0 12.0 0.00 0.00 0.00 69 1018.5
20200402140827 49 128 1.0 12.0 0.00 0.00 0.00 68 1018.5
20200402140327 49 138 4.0 13.0 0.00 0.00 0.00 68 1018.5
20200402135826 49 217 3.0 13.0 0.00 0.00 0.00 69 1018.5
20200402135324 49 126 5.0 11.0 0.00 0.00 0.00 69 1018.5
20200402134836 49 161 1.0 11.0 0.00 0.00 0.00 70 1018.5
20200402134334 49 130 4.0 11.0 0.00 0.00 0.00 70 1018.5
20200402133830 48 220 3.0 10.0 0.00 0.00 0.00 72 1018.5
20200402133340 47 139 2.0 7.0 0.00 0.00 0.00 74 1018.5
20200402132824 47 147 1.0 11.0 0.00 0.00 0.00 75 1018.6
20200402132324 46 135 3.0 11.0 0.00 0.00 0.00 76 1018.6
20200402131824 46 135 1.0 11.0 0.00 0.00 0.00 76 1018.6
20200402131323 46 113 3.0 7.0 0.00 0.00 0.00 77 1018.5
20200402130821 45 67 4.0 9.0 0.00 0.00 0.00 78 1018.5
20200402130318 45 102 1.0 9.0 0.00 0.00 0.00 79 1018.5
20200402125815 45 133 1.0 6.0 0.00 0.00 0.00 79 1018.7
20200402125334 45 162 2.0 5.0 0.00 0.00 0.00 80 1018.7
20200402124830 44 119 1.0 5.0 0.00 0.00 0.00 81 1018.7
20200402124326 44 145 3.0 7.0 0.00 0.00 0.00 80 1018.4
20200402123823 44 109 2.0 7.0 0.00 0.00 0.00 81 1018.4
20200402123324 44 99 2.0 7.0 0.00 0.00 0.00 81 1018.4
20200402122822 43 93 2.0 7.0 0.00 0.00 0.00 82 1018.3
20200402122314 43 152 1.0 9.0 0.00 0.00 0.00 83 1018.3
20200402121833 43 141 2.0 6.0 0.00 0.00 0.00 83 1018.3
20200402121333 42 111 1.0 6.0 0.00 0.00 0.00 84 1018.3
20200402120828 42 98 1.0 6.0 0.00 0.00 0.00 84 1018.3
20200402120319 42 128 1.0 5.0 0.00 0.00 0.00 84 1018.3
20200402115829 42 109 2.0 5.0 0.00 0.00 0.00 84 1018.2
20200402115325 42 107 1.0 5.0 0.00 0.00 0.00 84 1018.2
20200402114822 42 119 1.0 6.0 0.00 0.00 0.00 84 1018.2
20200402114317 42 101 1.0 6.0 0.00 0.00 0.00 84 1018.2
20200402113834 42 101 2.0 5.0 0.00 0.00 0.00 83 1018.2
20200402113333 43 111 1.0 6.0 0.00 0.00 0.00 83 1018.2
20200402112829 43 113 1.0 6.0 0.00 0.00 0.00 82 1018.2
20200402112327 43 125 2.0 5.0 0.00 0.00 0.00 82 1018.2
20200402111826 43 122 0.0 6.0 0.00 0.00 0.00 82 1018.2
20200402111322 43 144 2.0 8.0 0.00 0.00 0.00 81 1018.2
20200402110842 44 113 2.0 8.0 0.00 0.00 0.00 82 1018.2
20200402110332 44 115 0.0 6.0 0.00 0.00 0.00 82 1018.2
20200402105827 44 76 3.0 6.0 0.00 0.00 0.00 82 1018.2
20200402105327 44 128 1.0 6.0 0.00 0.00 0.00 81 1018.2
20200402104825 44 107 2.0 7.0 0.00 0.00 0.00 82 1018.2
20200402104321 44 146 3.0 7.0 0.00 0.00 0.00 81 1018.1
20200402103821 44 134 1.0 10.0 0.00 0.00 0.00 81 1018.1
20200402103320 44 136 0.0 10.0 0.00 0.00 0.00 82 1018.1
20200402102818 44 138 0.0 5.0 0.00 0.00 0.00 82 1017.8
20200402102317 43 98 0.0 5.0 0.00 0.00 0.00 82 1017.8
20200402101816 43 129 0.0 5.0 0.00 0.00 0.00 82 1017.8
20200402101316 43 106 2.0 5.0 0.00 0.00 0.00 82 1017.8
20200402100837 43 123 1.0 5.0 0.00 0.00 0.00 83 1017.8
20200402100332 43 126 1.0 6.0 0.00 0.00 0.00 83 1017.8
20200402095827 43 126 2.0 5.0 0.00 0.00 0.00 83 1017.7
20200402095327 43 138 1.0 6.0 0.00 0.00 0.00 84 1017.7
20200402094826 42 98 1.0 6.0 0.00 0.00 0.00 85 1017.7
20200402094321 42 148 1.0 4.0 0.00 0.00 0.00 86 1017.7
20200402093839 41 134 1.0 4.0 0.00 0.00 0.00 86 1017.7
20200402093333 41 112 1.0 4.0 0.00 0.00 0.00 88 1017.7
20200402092828 40 117 1.0 4.0 0.00 0.00 0.00 87 1017.6
20200402091823 39 113 1.0 4.0 0.00 0.00 0.00 88 1017.6
20200402091319 38 119 1.0 3.0 0.00 0.00 0.00 89 1017.7
20200402090817 38 104 1.0 3.0 0.00 0.00 0.00 88 1017.7
20200402090331 38 115 1.0 3.0 0.00 0.00 0.00 88 1017.7
20200402085829 37 101 1.0 2.0 0.00 0.00 0.00 87 1017.6
20200402085324 38 108 0.0 2.0 0.00 0.00 0.00 86 1017.6
20200402084822 38 115 0.0 2.0 0.00 0.00 0.00 86 1017.6
20200402084322 38 96 0.0 2.0 0.00 0.00 0.00 86 1017.5
20200402083817 39 82 0.0 3.0 0.00 0.00 0.00 85 1017.5
20200402083335 39 107 0.0 3.0 0.00 0.00 0.00 84 1017.5
20200402082819 40 94 0.0 1.0 0.00 0.00 0.00 83 1017.6
20200402082316 40 95 0.0 1.0 0.00 0.00 0.00 84 1017.6
20200402081836 41 101 0.0 2.0 0.00 0.00 0.00 84 1017.6
20200402081331 41 92 0.0 2.0 0.00 0.00 0.00 84 1017.3
20200402080826 41 110 0.0 3.0 0.00 0.00 0.00 83 1017.3
20200402080322 41 71 0.0 3.0 0.00 0.00 0.00 83 1017.3
20200402075822 41 103 0.0 2.0 0.00 0.00 0.00 83 1017.2
20200402075319 41 108 1.0 2.0 0.00 0.00 0.00 82 1017.2
20200402074819 42 101 0.0 2.0 0.00 0.00 0.00 82 1017.2
20200402074317 42 108 0.0 2.0 0.00 0.00 0.00 81 1017.2
20200402073831 42 89 0.0 3.0 0.00 0.00 0.00 81 1017.2
20200402073327 42 111 0.0 3.0 0.00 0.00 0.00 80 1017.2
20200402072822 43 92 0.0 2.0 0.00 0.00 0.00 80 1017.4
20200402072320 43 105 1.0 3.0 0.00 0.00 0.00 80 1017.4
20200402071818 43 113 0.0 3.0 0.00 0.00 0.00 79 1017.4
20200402071335 43 84 1.0 3.0 0.00 0.00 0.00 78 1017.4
20200402070830 44 88 0.0 2.0 0.00 0.00 0.00 78 1017.4
20200402070327 44 113 0.0 5.0 0.00 0.00 0.00 78 1017.4
20200402065822 44 120 1.0 5.0 0.00 0.00 0.00 78 1017.6
20200402065318 44 111 1.0 5.0 0.00 0.00 0.00 78 1017.6
20200402064328 45 103 0.0 3.0 0.00 0.00 0.00 77 1017.6
20200402063822 45 100 0.0 3.0 0.00 0.00 0.00 76 1017.6
20200402063324 45 107 0.0 2.0 0.00 0.00 0.00 76 1017.6
20200402062835 45 121 0.0 5.0 0.00 0.00 0.00 75 1017.6